Location: Godiavel Galaoual
(15.2485°N, 12.6604°W)
Time: 10:53:38
(UTC+00:00)

Explorer 11/Cluster Stage 4 - All Passes

Search period start: 13 June 2021 00:00
Search period end: 23 June 2021 00:00
Orbit: 467 x 1257 km, 28.8° (Epoch: 12 June)

Date Brightness Start Highest point End Pass type
(mag) Time Alt. Az. Time Alt. Az. Time Alt. Az.
13 Jun - 02:19:57 10° S 02:23:11 13° SSE 02:26:22 10° SE visible
13 Jun - 04:05:06 10° SW 04:12:38 41° SSE 04:19:22 10° E visible
13 Jun - 05:54:10 10° WSW 06:01:54 72° NNW 06:08:15 10° ENE visible
13 Jun - 07:45:25 10° WNW 07:51:10 29° NNW 07:55:57 10° NE daylight
13 Jun - 09:37:11 10° NW 09:40:43 17° N 09:43:49 10° NE daylight
13 Jun - 11:26:44 10° NW 11:30:10 21° N 11:33:13 10° ENE daylight
13 Jun - 13:14:55 10° WNW 13:18:51 73° NNE 13:22:26 10° ESE daylight
13 Jun - 15:04:41 10° WSW 15:06:50 15° SSW 15:08:59 10° S daylight
14 Jun - 02:07:34 10° S 02:12:02 16° SSE 02:16:27 10° ESE visible
14 Jun - 03:53:35 10° SW 04:01:26 49° SSE 04:08:30 10° ENE visible
14 Jun - 05:42:56 10° WSW 05:50:45 64° NNW 05:57:17 10° ENE visible
14 Jun - 07:34:22 10° WNW 07:40:11 28° NNW 07:45:04 10° NE daylight
14 Jun - 09:26:00 10° NW 09:29:53 18° N 09:33:15 10° NE daylight
14 Jun - 11:15:27 10° NW 11:19:21 24° NNE 11:22:43 10° ENE daylight
14 Jun - 13:03:53 10° WNW 13:07:57 85° SSW 13:11:36 10° ESE daylight
14 Jun - 14:54:44 10° SW 14:55:53 11° SSW 14:57:03 10° SSW daylight
15 Jun - 01:55:32 10° S 02:00:50 19° SSE 02:06:07 10° ESE visible
15 Jun - 03:42:07 10° SW 03:50:11 57° SSE 03:57:34 10° ENE visible
15 Jun - 05:31:45 10° W 05:39:35 57° NNW 05:46:17 10° NE visible
15 Jun - 07:23:19 10° WNW 07:29:12 27° NNW 07:34:13 10° NE daylight
15 Jun - 09:14:46 10° NW 09:19:02 20° N 09:22:42 10° NE daylight
15 Jun - 11:04:10 10° NW 11:08:31 29° NNE 11:12:11 10° ENE daylight
15 Jun - 12:52:52 10° WNW 12:57:03 65° SSW 13:00:43 10° SE daylight
16 Jun - 01:43:43 10° SSW 01:49:37 22° SSE 01:55:34 10° E visible
16 Jun - 03:30:44 10° SW 03:38:55 65° SSE 03:46:34 10° ENE visible
16 Jun - 05:20:35 10° W 05:28:26 52° NNW 05:35:15 10° NE visible
16 Jun - 07:12:14 10° WNW 07:18:13 27° NNW 07:23:21 10° NE daylight
16 Jun - 09:03:30 10° NW 09:08:10 21° N 09:12:09 10° NE daylight
16 Jun - 10:52:52 10° NW 10:57:39 35° NNE 11:01:37 10° E daylight
16 Jun - 12:41:51 10° WNW 12:46:07 50° SSW 12:49:46 10° SE daylight
17 Jun - 01:32:02 10° SSW 01:38:22 26° SSE 01:44:51 10° E visible
17 Jun - 03:19:24 10° SW 03:27:39 75° SSE 03:35:31 10° ENE visible
17 Jun - 05:09:28 10° W 05:17:16 48° NNW 05:24:11 10° NE visible
17 Jun - 07:01:08 10° WNW 07:07:14 26° N 07:12:31 10° NE daylight
17 Jun - 08:52:12 10° NW 08:57:17 24° N 09:01:35 10° ENE daylight
17 Jun - 10:41:33 10° NW 10:46:46 43° NNE 10:50:59 10° E daylight
17 Jun - 12:30:52 10° W 12:35:09 39° SSW 12:38:48 10° SE daylight
18 Jun - 01:20:29 10° SSW 01:27:05 30° SSE 01:34:01 10° E visible
18 Jun - 03:08:09 10° WSW 03:16:22 84° SSE 03:24:24 10° ENE visible
18 Jun - 04:58:23 10° W 05:06:07 44° NNW 05:13:07 10° NE visible
18 Jun - 06:50:01 10° WNW 06:56:15 26° N 07:01:41 10° NE daylight
18 Jun - 08:40:53 10° NW 08:46:23 26° N 08:51:01 10° ENE daylight
18 Jun - 10:30:15 10° NW 10:35:51 52° NNE 10:40:19 10° E daylight
18 Jun - 12:19:54 10° W 12:24:09 32° SSW 12:27:45 10° SSE daylight
19 Jun - 01:09:01 10° SSW 01:15:48 34° SSE 01:23:04 10° E visible
19 Jun - 02:56:57 10° WSW 03:05:06 87° NNW 03:13:15 10° ENE visible
19 Jun - 04:47:19 10° W 04:54:58 41° NNW 05:02:02 10° NE visible
19 Jun - 06:38:53 10° WNW 06:45:15 27° N 06:50:52 10° NE daylight
19 Jun - 08:29:32 10° NW 08:35:28 29° N 08:40:25 10° ENE daylight
19 Jun - 10:18:56 10° WNW 10:24:54 64° NNE 10:29:35 10° ESE daylight
19 Jun - 12:08:59 10° W 12:13:07 26° SW 12:16:39 10° SSE daylight
20 Jun - 00:57:39 10° SW 01:04:31 40° SSE 01:12:03 10° E visible
20 Jun - 02:45:48 10° WSW 02:53:51 78° NNW 03:02:03 10° ENE visible
20 Jun - 04:36:18 10° W 04:43:50 38° NNW 04:50:56 10° NE visible
20 Jun - 06:27:44 10° WNW 06:34:15 27° N 06:40:03 10° NE daylight
20 Jun - 08:18:10 10° NW 08:24:30 33° N 08:29:47 10° ENE daylight
20 Jun - 10:07:38 10° WNW 10:13:54 77° NNE 10:18:49 10° ESE daylight
20 Jun - 11:58:06 10° W 12:02:04 22° SW 12:05:28 10° SSE daylight
20 Jun - 23:02:30 10° SSE 23:04:33 11° SE 23:06:41 10° SE night (unlit)
21 Jun - 00:46:21 10° SW 00:53:14 45° SSE 01:00:57 10° ENE visible
21 Jun - 02:34:43 10° WSW 02:42:36 70° NNW 02:50:50 10° ENE visible
21 Jun - 04:25:17 10° WNW 04:32:43 36° NNW 04:39:50 10° NE visible
21 Jun - 06:16:34 10° WNW 06:23:15 28° N 06:29:14 10° ENE daylight
21 Jun - 08:06:48 10° NW 08:13:31 37° NNE 08:19:07 10° E daylight
21 Jun - 09:56:20 10° WNW 10:02:52 89° SSW 10:08:00 10° ESE daylight
21 Jun - 11:47:18 10° W 11:50:59 19° SW 11:54:11 10° S daylight
21 Jun - 22:50:18 10° S 22:53:21 13° SE 22:56:38 10° ESE night (unlit)
22 Jun - 00:35:07 10° SW 00:41:58 52° SSE 00:49:47 10° ENE visible
22 Jun - 02:23:42 10° WSW 02:31:23 62° NNW 02:39:33 10° ENE visible
22 Jun - 04:14:18 10° WNW 04:21:36 34° N 04:28:43 10° NE visible
22 Jun - 06:05:23 10° NW 06:12:13 29° N 06:18:26 10° ENE daylight
22 Jun - 07:55:25 10° NW 08:02:30 42° NNE 08:08:24 10° E daylight
22 Jun - 09:45:02 10° WNW 09:51:47 76° SSW 09:57:06 10° ESE daylight
22 Jun - 11:36:36 10° WSW 11:39:52 16° SW 11:42:48 10° S daylight
22 Jun - 22:38:31 10° S 22:42:10 16° SE 22:46:10 10° ESE night (unlit)
